KPXE

Details ICAO KPXE
Name PERRY HOUSTON CO
Region United States
Timezone America/New_York (UTC-4.0)
Plans Departing 4
Arriving 7
Stats Elevation 418 ft / 127 m (AMSL)
Location 32.510574° -83.767346°
Runways 1
Magnetic Variation 5.425° W
Sunrise 2018-05-26 10:32:05 UTC / 2018-05-26 06:32:05 Local
Sunset 2018-05-27 00:35:04 UTC / 2018-05-26 20:35:04 Local
Advertisement - Login to hide

Runways

ID Width Length Bearing (true) Bearing (mag) Surface Threshold Offset Overrun Length
18 100 ft / 30 m 5,013 ft / 1,528 m 179.48° 184.91° Asphalt 0 ft / 0 m 0 ft / 0 m
36 100 ft / 30 m 5,013 ft / 1,528 m 359.48° 4.91° Asphalt 0 ft / 0 m 0 ft / 0 m

Approach Navaids

Runway Type Ident Frequency Range Bearing (true) Bearing (mag) Slope Elevation
36 Localiser IPXE 109.15 MHz 18 nm / 33 km 359.40° 4.83° - 418 ft / 127 m (AMSL)

Map

Weather


0- 5 10 15 20 25 30 35+ Temperature / ° C

Clouds and Precipitation
Forecast for 2018-05-27 00:00 UTC. Updated 4 hours ago

Ground ~20,000 ft ~40,000 ft Winds

METAR

KPXE 270335Z AUTO 00000KT 10SM CLR 22/21 A2995 RMK AO2 T02160212

TAF

Not found

Frequencies

Recorded 123.82 MHz AWOS 3
Approach 119.60 MHz ATLANTA APP/DEP
Unicom 122.70 MHz CTAF/UNICOM
Approach 124.20 MHz ATLANTA APP/DEP
Warning: Do not use this data for real-world aviation or navigation. No guarantee of current accuracy is given.